Regional Weather Roundup
Issued by NWS Wakefield, VA

Home | Current Version | Previous Version | Graphics & Text | Print | Product List | Glossary On
Versions: 1 2 3 4 5 6 7 8 9 10 11 12 13 14 15 16 17 18 19 20 21 22 23 24 25 26 27 28 29 30 31 32 33 34 35 36 37 38 39 40 41 42 43 44 45 46 47 48 49 50
000
ASUS41 KAKQ 020010
RWRAKQ

REGIONAL WEATHER ROUNDUP
NATIONAL WEATHER SERVICE WAKEFIELD VA
800 PM EDT WED OCT 01 2014

Note: "fair" indicates few or no clouds below 12,000 feet with no
significant weather and/or obstructions to visibility. * = Denotes
station may not report precipitation (e.g., rain,snow,etc.),
thunder or fog.

VAZ042-051-052>054-056-020100-
NORTHERN VIRGINIA

CITY           SKY/WX    TMP DP  RH WIND       PRES   REMARKS
WASH NATIONAL  MOCLDY    71  60  68 E5        30.04R
DULLES         MOCLDY    62  59  90 E3        30.04R
FORT BELVOIR   CLEAR     63  61  93 CALM      30.04R
QUANTICO       PTCLDY    67  62  84 MISG      30.04R
FREDERICKSBRG* PTCLDY    69  63  79 NE3       30.02R
STAFFORD*      MOCLDY    64  64 100 CALM      30.07R
WARRENTON      MOCLDY    64  64 100 CALM      30.03R
CULPEPER*      MOCLDY    66  63  88 CALM      30.04S
MANASSAS*      PTCLDY    64  63  94 CALM      30.04R
LEESBURG*      PTCLDY    66  64  94 N3        30.05R
WINCHESTER     CLEAR     61  59  94 CALM      30.05R
FRONT ROYAL*   MOCLDY    63  61  94 CALM      30.04R
LURAY*         CLOUDY    68  63  83 NE5       30.04R
$$

VAZ048-049-060>072-079>083-020100-
CENTRAL AND SOUTH CENTRAL VIRGINIA...AND NORTH CENTRAL NORTH CAROLINA

CITY           SKY/WX    TMP DP  RH WIND       PRES   REMARKS
RICHMOND       CLOUDY    69  63  81 E6        30.02R
CHESTERFIELD*  CLOUDY   N/A N/A N/A CALM      30.03R
PETERSBURG*    RAIN      67  64  89 E5        30.03R
HANOVER        CLOUDY    67  63  87 CALM      30.04R
TAPPAHANNOCK*  CLEAR     63  59  85 CALM      30.03R
CHARLOTTSVILLE CLOUDY    68  62  81 NE3       30.03R
ORANGE*        CLOUDY    64  61  88 CALM      30.05R
LOUISA*        CLOUDY    68  63  83 E3        30.02R
FARMVILLE*     PTCLDY    66  63  88 CALM      30.00R
CREWE*         MOCLDY    64  62  93 CALM      30.01R
FORT PICKETT*  CLEAR     65  64  97 CALM      30.02R
LUNENBURG*     CLEAR     65  64  96 CALM      30.02R
SOUTH HILL*      N/A     64  64 100 CALM      30.07R FOG
LAWRENCEVILLE* CLEAR     64  64  99 CALM      30.01R
ROANOKE RAPIDS CLEAR     63  63 100 CALM      30.00R FOG
RALEIGH        MOCLDY    67  63  87 CALM      30.01S
$$

VAZ088>098-020100-
SOUTHEAST VIRGINIA

CITY           SKY/WX    TMP DP  RH WIND       PRES   REMARKS
NORFOLK        CLOUDY    70  63  78 E6        30.02R
VIRGINIA BEACH PTCLDY    69  61  75 NE5       30.01R
NORFOLK NAVAL  MOCLDY    70  64  81 E6        30.03R
WEST POINT*    CLOUDY    66  62  87 CALM      30.04R
NEWPORT NEWS   MOCLDY    69  62  78 NE6       30.02R
LANGLEY AFB    MOCLDY    68  68 100 E8        30.02R
FORT EUSTIS    MOCLDY    69  69 100 NE5       30.00R
WILLIAMSBURG*  PTCLDY    70  64  83 CALM      30.03R
HR EXEC AP*    CLOUDY    64  61  88 CALM      30.04R
FRANKLIN*      CLOUDY    70  63  78 E6        30.01R
WAKEFIELD      LGT RAIN  68  65  90 CALM      30.02R
$$

VAZ020-022-025-037-045-020100-
WEST CENTRAL AND SOUTHWEST VIRGINIA

CITY           SKY/WX    TMP DP  RH WIND       PRES   REMARKS
STAUNTON*      DRIZZLE   68  61  77 CALM      30.06R
HOT SPRINGS VA MOCLDY    60  36  40 W5        30.14R
LYNCHBURG      MOCLDY    64  63  96 CALM      30.04R
DANVILLE       CLOUDY    69  65  86 CALM      30.02R
SOUTH BOSTON*  NOT AVBL
MARTINSVILLE   CLOUDY    64  64 100 CALM      30.05R FOG
ROANOKE        MOCLDY    69  62  78 E7        30.04S
BLACKSBURG     CLEAR     64  61  88 E3        30.08R
DUBLIN*        CLEAR     66  52  59 NW3       30.07S
MARION*        CLEAR     63  57  81 CALM      30.11R
HILLSVILLE*    PTCLDY    65  59  80 S5        30.09R
RICHLANDS*     CLEAR     70  52  52 CALM      30.08S
WISE*          CLEAR     66  50  55 CALM      30.10R
ABINGDON*      CLEAR     66  58  77 CALM      30.06R
$$

MDZ021>025-VAZ099-100-020100-
SOUTHERN MARYLAND AND THE DELMARVA PENINSULA

CITY           SKY/WX    TMP DP  RH WIND       PRES   REMARKS
PATUXENT RIVER CLEAR     67  60  78 N3        30.02S
BAY BRIDGE APT   N/A     66  59  77 CALM      30.03R
LEONARDTOWN    CLEAR     63  57  82 CALM      30.04S
DOVER          PTCLDY    64  60  85 NE7       30.01S
GEORGETOWN     CLEAR     65  60  84 E8        30.04R
EASTON         PTCLDY    68  63  83 CALM      30.06S
CAMBRIDGE      CLEAR     63  61  94 CALM      30.02S
SALISBURY      CLEAR     64  58  80 CALM      30.02R
OCEAN CITY     PTCLDY    66  60  81 NE6       30.03R
WALLOPS ISLAND CLEAR     66  61  84 N3        30.03R
ACCOMACK*      CLEAR     63  61  94 E3        30.02R FOG
$$

NCZ012>017-030>032-020100-
EASTERN NORTH CAROLINA

CITY           SKY/WX    TMP DP  RH WIND       PRES   REMARKS
ELIZABETH CITY CLEAR     68  63  84 NE8       30.01R
AHOSKIE*       CLEAR     65  64  96 E5        30.00S
EDENTON*       CLEAR     67  64  89 E5        30.00S
CURRITUCK*     CLEAR     70  63  78 NE6       30.02R
KILL DEVIL HLS CLEAR     69  64  84 NE6       29.99S
MANTEO         CLEAR     69  64  84 NE9       30.00S
CAPE HATTERAS  CLEAR     68  64  87 NE6       30.00R
TARBORO*       CLEAR     65  64  94 CALM      30.01S FOG
GOLDSBORO      CLEAR     69  68  98 CALM      29.99R
WASHINGTON     CLEAR     67  64  91 CALM      30.01R
GREENVILLE     CLEAR     68  66  94 CALM      30.02S
NEW BERN       CLEAR     71  64  78 CALM      30.00R
WILMINGTON     CLEAR     70  67  90 CALM      29.99R
$$

VAZ048-020100-
ELSEWHERE

CITY           SKY/WX    TMP DP  RH WIND       PRES   REMARKS
HARRISBURG PA  PTCLDY    62  59  90 NW3       30.04R
BALTIMORE      PTCLDY    67  59  75 N3        30.03R
ANNAPOLIS      CLEAR     67  62  84 CALM      30.03R
ANDREWS AFB    CLEAR     64  61  91 E2        30.04R
WILMINGTON DE  MOCLDY    67  58  72 E6        30.05R
PHILADELPHIA   PTCLDY    67  57  70 E9G17     30.05R
WILDWOOD NJ*   CLEAR     63  55  77 N5        30.04R
ATLANTIC CITY  CLOUDY    63  60  90 N6        30.04R
HENDERSON NC   CLEAR     65  63  93 CALM      30.02R FOG
GREENSBORO     MOCLDY    70  62  76 CALM      30.02R
ROCKY MOUNT    CLEAR     66  64  93 CALM      30.00S
FAYETTEVILLE   CLEAR     70  67  90 NE6       30.00R
CHARLOTTE      PTCLDY    71  58  63 CALM      30.00S
$$

VAZ100-020100-
MARINE

STATION/POSITION TIME  TEMP    WIND        PRES    WAVE   SWELL
                       AIR SEA DIR/SP/G            HT/PER HT/PER
                 (UTC) (F)     (DEG/KT/KT) (MB)    (FT/S) (FT/S)
44066 TX TWR #4  0000   66 70   20/ 21/ 25 1014.3R   8/ 7
CAPE MAY NJ      0000   65 74   10/  3/  6 1016.4R
LEWES DE         0000   68 71   60/ 10/ 12 1016.4R
15NM E FENWICK I 0000   67 70              1016.0R   5/ 7
OCEAN-CITY-INLET 0000   68 71   50/  3/  8 1016.3R
WACHAPREAGUE VA  0000   67 74   30/  5/  6 1016.5R
THOMAS POINT MD  0000   70 72  360/  5/  6 1017.8R
COVE POINT MD    0000   70      20/  7/  9 1016.5R
SOLOMONS ISLAND  0000      72                N/A
BISHOPS HEAD MD  0000   70 73   60/  8/ 10 1016.0R
PINEY POINT MD   0000           50/  2/  3   N/A
CAMBRIDGE MD     0000   70 71   10/  3/  3 1016.4R
LEWISETTA VA     0000   70 72   30/  5/  7 1016.4R
RAPPAHANNOCK LGT 0000           80/  8/  8 1016.7S
YORK RVR RNG VA  0000   71     140/  2/  5 1016.1R
YORKTOWN VA      0000   70 73   60/  6/  7 1016.1R
DOMINION TERM VA 0000   70      60/  5/  6 1016.3R
KIPTOPEKE VA     0000      76   50/  1/  3   N/A
CHES BAY BRIDGE  0000   70 73   50/  8/  9 1016.0R
CHESAPEAKE LGHT  2300   69      40/ 12/ 12 1016.3S
WILLOUBY STN VA  0000   70      40/  3/  5 1015.0R
S CRANEY ISL VA  0000           50/  5/  7 1016.1R
64NM E OF VA BCH 0000   69 71   10/ 14/ 16 1015.3R   5/ 7   3/14
DUCK PIER NC     0000   70 73   30/ 13/ 15 1015.2R
OREGON INLET NC  0000   70 74   20/ 12/ 16 1015.6R
HATTERAS NC      0000   71 75   30/ 10/ 12 1016.1R
DIAMOND SHLS NC  0000   71      10/ 16/ 19 1015.3R   3/ 7   2/ 7
CAPE LOOKOUT NC  2300   74      50/ 12/ 13 1014.9R
$$


USA.gov is the U.S. government's official web portal to all federal, state and local government web resources and services.